Starlink 3114

operational
NORAD ID: 49426 Int'l Des: 2021-104 Owner: SPXS Country: US Constellation: starlink
LEOCIRCULAR

Über Starlink 3114

Beschreibung wird geladen...

Live-Position

3D-Globus wird geladen...

Nächste Überflüge

Höhenverlauf

Altitude vs Time

uPlot chart will show altitude changes over time

Zweizeiliger Elementsatz

1 49426U 21104U 25303.85194812 -.00000082 00000-0 12910-4 0 9992
2 49426 53.2169 91.9819 0001337 87.2683 272.8462 15.08837723219027
Epoch: 30. Okt. 2025 • Age: 20 hours

Aktueller Status

Höhe 558.1 km
Geschwindigkeit 7.58 km/s
Subsatellitenpunkt -50.53°S, 91.61°E
Startdatum 13. Nov. 2021
Alter 3.9 years
Typ internet

Technische Details

Klassifizierung Payload
Masse 290.00 kg
Trockenmasse 270.00 kg
Gesamtmasse 290.00 kg
Länge 0.20 m
Durchmesser 2.80 m
Spannweite 9.00 m
Form Box + pan
Hersteller SPXS
Bus-Typ Starlink
Phasenstatus In Orbit
Besitzer/Staat SPXS/US

Große Konstellationen

Loading constellations...